Temp
12 13 13 13 13 14 14 15 15 15 14 15 15 14 15 15 15 15 15 15 15 15 15 15 15 15 15 14 15 15 15 15 15 15 15 15 15 15 15 15 15 15 16
11 12 12 13 13 13 14 14 14 14 14 14 14 14 14 14 14 14 14 14 14 14 14 15 15 15 15 14 14 14 15 15 15 15 15 15 15 15 14 15 15 15 15
11 12 12 13 13 13 13 13 13 14 14 14 14 14 14 14 14 14 13 13 13 13 14 14 14 14 15 15 14 14 14 14 15 15 15 14 14 14 14 14 15 15 15
10 11 11 12 12 12 12 12 13 14 14 14 14 14 14 13 13 13 13 13 13 13 13 13 14 14 14 14 14 14 14 14 14 15 14 13 13 14 14 14 14 14 15
10 11 10 10 13 13 13 14 14 14 14 14 14 14 14 14 14 14 14 14 14 14 13 13 13 13 13 14 14 14 14 14 14 13 13 14 14 14 14 14 14 14 14
11 11 13 12 13 13 14 14 14 14 14 14 14 14 14 13 13 13 13 13 13 13 13 13 13 13 13 13 13 13 13 14 14 13 13 14 14 14 15 15 15 14 14
10 11 11 13 13 13 13 13 13 13 14 14 14 14 14 14 13 13 13 13 13 13 13 13 13 13 13 13 13 13 13 14 14 12 12 13 14 14 14 14 14 15 15
10 11 11 12 12 12 13 13 13 13 13 13 13 13 13 13 13 13 13 13 13 13 13 13 13 13 13 13 13 13 13 13 13 12 13 12 13 14 14 14 14 14 15
10 10 11 11 12 12 12 12 12 12 12 12 12 12 12 12 12 12 12 12 12 12 12 12 12 12 12 13 13 13 13 13 13 12 13 12 13 13 13 13 14 14 14
10 10 11 11 11 11 11 11 11 11 11 11 11 11 11 11 11 11 11 12 11 11 11 11 12 12 12 12 12 12 12 12 11 11 12 12 14 14 13 13 13 13 13
9 10 10 10 10 10 10 10 10 10 10 10 10 11 11 11 11 11 11 11 11 11 11 11 11 11 11 11 11 11 11 12 11 11 11 12 12 13 14 14 13 13 13
9 9 9 9 9 9 9 9 9 9 10 10 10 10 10 10 10 10 10 10 10 10 10 10 10 11 11 11 11 11 11 11 11 10 10 12 12 12 12 13 14 13 13
9 8 8 8 8 8 8 8 9 9 9 9 9 9 9 9 9 10 10 10 10 10 10 10 10 10 10 10 10 10 10 11 11 11 11 11 11 11 12 12 13 14 14
8 8 7 7 7 8 8 8 8 8 8 8 8 8 9 9 9 9 9 9 9 9 9 10 10 10 10 10 10 10 10 10 10 11 11 12 11 11 11 12 12 13 13
7 6 7 7 7 7 7 7 7 7 7 7 7 7 7 7 7 7 7 7 8 8 8 9 9 9 9 10 10 10 10 10 10 10 10 11 12 12 11 11 11 12 13
6 6 6 6 6 6 6 6 6 6 6 6 6 6 6 6 6 6 7 7 7 7 8 8 8 8 9 9 9 9 9 10 10 10 10 10 11 11 12 12 12 11 11
5 5 5 5 5 5 5 5 5 5 5 5 5 5 5 6 6 6 6 7 7 7 7 7 7 7 7 8 8 9 9 9 9 10 10 10 10 11 11 11 12 12 11
4 4 4 4 4 4 4 4 4 4 4 4 4 4 4 5 5 5 4 5 5 5 5 5 5 5 5 6 6 6 6 7 8 9 9 9 9 10 10 11 11 11 11
3 3 3 3 3 3 3 3 3 3 3 4 4 4 4 4 4 4 4 4 3 3 3 2 2 2 3 3 3 5 5 6 6 7 7 8 8 9 9 9 10 10 11
2 2 2 2 2 2 2 2 3 3 3 3 4 4 4 4 4 3 3 2 2 2 2 2 1 1 -0 -1 1 2 1 4 5 5 3 4 4 4 4 7 7 7 8
1 1 1 2 2 2 2 2 3 3 3 2 2 2 2 2 2 2 2 2 1 1 1 0 -1 -1 -1 -3 -2 -1 1 0 2 2 1 1 2 2 3 4 4 4 6
1 1 1 1 1 2 2 2 2 2 2 2 2 2 2 1 1 0 -0 -0 -1 -1 -1 -1 -1 -2 -3 -4 -5 -4 -1 0 0 -0 1 0 0 1 1 2 1 3 4
-0 0 0 1 1 1 1 1 1 1 1 1 1 1 0 -0 -1 -2 -2 -2 -2 -2 -2 -2 -3 -3 -5 -4 -6 -6 -4 -1 -3 -0 -2 -0 -1 -1 1 -0 -0 0 3
-0 -0 -0 -0 -0 -0 0 0 0 0 0 -0 -0 -0 -1 -1 -2 -2 -3 -3 -3 -3 -3 -4 -4 -5 -5 -7 -7 -6 -6 -6 -5 -4 -2 -3 -3 -3 -2 -2 -2 0 2
-1 -1 -1 -1 -1 -1 -1 -1 -1 -1 -1 -1 -2 -1 -1 -2 -2 -2 -3 -3 -3 -4 -4 -4 -5 -6 -7 -8 -8 -8 -7 -7 -6 -6 -5 -4 -3 -3 -4 -4 -4 -3 -1
-1 -2 -2 -2 -2 -1 -1 -1 -2 -2 -2 -2 -3 -3 -3 -3 -3 -3 -3 -3 -4 -4 -4 -5 -6 -7 -8 -9 -9 -9 -8 -8 -7 -7 -6 -6 -6 -5 -5 -5 -5 -4 -4
Height
1565 1564 1562 1564 1563 1563 1561 1561 1560 1559 1558 1557 1557 1558 1557 1555 1554 1553 1551 1550 1549 1548 1547 1545 1544 1543 1543 1542 1542 1541 1540 1539 1539 1538 1539 1538 1538 1539 1538 1538 1538 1538 1537
1566 1565 1562 1562 1564 1564 1563 1563 1563 1561 1560 1559 1559 1559 1558 1557 1555 1555 1554 1552 1551 1550 1549 1547 1546 1545 1544 1544 1543 1542 1542 1541 1540 1540 1539 1540 1540 1540 1539 1539 1539 1539 1538
1567 1565 1565 1566 1566 1565 1564 1563 1563 1562 1561 1560 1560 1559 1558 1557 1557 1556 1555 1554 1553 1552 1551 1549 1548 1547 1545 1545 1544 1543 1542 1541 1541 1541 1540 1541 1541 1540 1540 1540 1540 1540 1539
1569 1568 1568 1568 1567 1566 1565 1563 1563 1562 1562 1561 1561 1560 1559 1558 1557 1556 1555 1555 1554 1553 1552 1551 1549 1548 1547 1546 1545 1544 1543 1542 1542 1542 1543 1541 1542 1541 1541 1541 1540 1541 1540
1570 1570 1568 1567 1566 1566 1565 1564 1564 1564 1563 1562 1562 1561 1560 1559 1558 1557 1556 1555 1555 1554 1553 1552 1551 1549 1548 1546 1546 1545 1544 1543 1543 1543 1542 1542 1542 1542 1541 1541 1541 1541 1540
1572 1571 1568 1567 1567 1567 1566 1565 1565 1564 1563 1562 1562 1560 1559 1558 1558 1558 1557 1556 1555 1554 1554 1552 1551 1550 1548 1547 1546 1545 1544 1543 1542 1543 1542 1541 1541 1541 1540 1540 1540 1540 1540
1572 1571 1570 1568 1568 1568 1567 1566 1566 1564 1564 1562 1561 1559 1559 1558 1558 1557 1556 1555 1555 1554 1553 1552 1550 1549 1548 1547 1546 1544 1543 1543 1542 1543 1542 1541 1540 1540 1539 1539 1539 1539 1539
1572 1572 1571 1571 1570 1568 1567 1567 1566 1564 1564 1562 1560 1560 1559 1558 1557 1556 1556 1555 1554 1553 1552 1550 1549 1548 1547 1546 1545 1544 1543 1542 1542 1542 1541 1540 1539 1538 1538 1538 1537 1537 1537
1571 1571 1571 1570 1569 1568 1567 1567 1566 1564 1563 1562 1559 1560 1559 1558 1558 1557 1556 1555 1554 1553 1552 1550 1549 1547 1546 1545 1544 1543 1542 1541 1541 1541 1539 1539 1537 1536 1536 1536 1536 1535 1535
1570 1570 1570 1569 1569 1568 1567 1566 1565 1563 1561 1561 1561 1560 1559 1558 1557 1556 1555 1553 1553 1551 1550 1549 1548 1547 1545 1544 1543 1542 1541 1540 1539 1538 1538 1537 1535 1535 1534 1533 1533 1533 1533
1570 1569 1569 1568 1568 1567 1566 1565 1564 1562 1562 1562 1561 1559 1558 1557 1556 1555 1553 1552 1551 1550 1549 1547 1546 1544 1543 1542 1541 1540 1539 1538 1537 1537 1536 1533 1532 1532 1532 1531 1530 1530 1530
1569 1568 1568 1567 1567 1566 1566 1565 1564 1563 1563 1562 1560 1558 1557 1556 1555 1554 1552 1551 1549 1548 1547 1545 1543 1541 1540 1539 1538 1537 1537 1536 1534 1533 1533 1531 1530 1529 1528 1528 1528 1527 1526
1566 1567 1567 1567 1567 1566 1566 1565 1564 1563 1562 1561 1559 1558 1557 1556 1555 1553 1551 1549 1547 1546 1544 1543 1541 1539 1537 1536 1535 1534 1533 1532 1531 1530 1529 1527 1526 1525 1524 1524 1523 1523 1523
1567 1567 1567 1567 1566 1566 1565 1565 1564 1563 1562 1561 1560 1559 1558 1557 1555 1553 1551 1549 1547 1545 1542 1540 1538 1537 1535 1533 1531 1530 1529 1528 1527 1525 1524 1523 1523 1521 1520 1518 1519 1518 1518
1568 1567 1567 1566 1566 1565 1565 1565 1564 1563 1563 1561 1559 1558 1557 1556 1554 1552 1550 1548 1546 1543 1540 1538 1536 1533 1531 1529 1527 1525 1524 1522 1521 1519 1517 1517 1517 1516 1515 1514 1513 1512 1513
1567 1566 1566 1566 1565 1565 1565 1564 1564 1563 1561 1560 1558 1557 1555 1554 1552 1550 1548 1546 1543 1541 1538 1534 1531 1528 1526 1524 1522 1520 1518 1516 1514 1513 1511 1510 1509 1510 1509 1508 1507 1507 1506
1564 1564 1565 1565 1565 1565 1565 1564 1564 1562 1561 1560 1559 1557 1555 1553 1551 1549 1546 1543 1541 1538 1535 1532 1528 1524 1521 1517 1515 1513 1511 1509 1507 1505 1504 1502 1501 1500 1501 1500 1500 1500 1499
1563 1564 1564 1565 1565 1565 1565 1564 1563 1562 1561 1559 1558 1556 1554 1552 1549 1546 1543 1540 1536 1533 1530 1527 1523 1520 1516 1513 1508 1506 1503 1501 1500 1498 1496 1495 1494 1492 1492 1492 1492 1491 1492
1561 1562 1563 1564 1564 1564 1563 1563 1562 1561 1560 1559 1557 1555 1552 1550 1547 1544 1541 1538 1535 1531 1527 1523 1520 1516 1512 1508 1502 1499 1496 1494 1492 1491 1488 1488 1486 1484 1483 1483 1483 1482 1483
1560 1561 1562 1562 1562 1562 1562 1562 1561 1560 1559 1557 1555 1552 1550 1547 1544 1541 1538 1535 1532 1529 1525 1521 1517 1514 1509 1504 1496 1492 1489 1486 1484 1482 1481 1481 1480 1479 1476 1474 1474 1475 1473
1558 1560 1560 1560 1561 1561 1561 1561 1560 1559 1557 1554 1552 1550 1547 1543 1541 1538 1535 1531 1527 1524 1521 1518 1514 1509 1506 1501 1493 1488 1481 1478 1478 1478 1477 1476 1475 1471 1468 1467 1466 1466 1464
1555 1557 1558 1559 1559 1559 1559 1558 1557 1555 1554 1552 1550 1547 1545 1542 1538 1535 1532 1529 1526 1523 1520 1516 1512 1507 1504 1502 1496 1489 1479 1474 1472 1471 1469 1469 1469 1467 1463 1462 1458 1459 1456
1552 1554 1555 1556 1557 1556 1556 1555 1554 1552 1550 1548 1546 1543 1540 1537 1534 1531 1528 1524 1521 1517 1514 1512 1508 1503 1499 1499 1497 1498 1487 1477 1469 1468 1465 1464 1462 1460 1457 1458 1453 1451 1450
1547 1550 1552 1553 1554 1553 1552 1552 1551 1549 1548 1544 1541 1538 1535 1531 1529 1525 1522 1519 1515 1511 1508 1504 1501 1499 1495 1491 1490 1490 1488 1483 1474 1455 1460 1458 1456 1453 1452 1448 1446 1444 1443
1544 1547 1549 1550 1550 1549 1550 1549 1548 1546 1543 1540 1536 1534 1531 1528 1525 1522 1519 1516 1512 1509 1505 1501 1497 1494 1491 1488 1486 1483 1478 1476 1472 1468 1446 1447 1449 1447 1447 1442 1440 1436 1434
1540 1543 1545 1546 1547 1547 1547 1546 1544 1542 1539 1536 1533 1529 1526 1523 1521 1519 1515 1511 1507 1503 1500 1496 1492 1489 1485 1481 1478 1475 1472 1468 1464 1461 1452 1442 1439 1439 1438 1435 1431 1429 1427
Wind_Speed
22 21 24 9 9 8 8 10 11 12 14 15 14 13 13 14 13 14 14 15 16 16 16 17 16 13 11 11 11 10 9 8 8 8 6 4 6 5 6 7 7 6 7
18 18 25 15 13 12 11 12 11 11 12 13 13 13 12 11 12 14 14 14 15 15 15 15 15 14 11 9 9 9 9 8 7 7 7 5 2 3 4 4 4 3 4
16 12 20 14 14 13 14 11 10 10 11 13 13 12 12 13 12 11 12 13 13 14 14 14 13 13 12 9 7 7 7 8 8 6 5 7 5 1 2 2 2 3 2
12 13 17 11 11 11 8 9 10 9 9 8 9 12 12 11 12 11 11 11 12 13 13 12 12 11 10 10 9 6 6 6 6 5 6 4 6 3 1 2 2 3 2
8 8 16 11 9 7 8 10 9 9 9 9 8 7 8 8 9 10 9 10 9 10 10 11 11 11 10 9 8 8 6 6 5 5 5 4 4 5 3 3 4 4 4
6 6 8 8 8 8 8 10 9 9 9 9 9 7 7 6 7 7 8 8 10 9 9 9 10 10 10 10 10 10 8 6 6 7 7 7 6 6 6 6 7 9 9
5 5 5 7 8 8 8 9 8 9 8 8 8 8 7 7 6 6 7 7 8 9 10 10 10 9 9 9 9 9 10 9 8 8 8 9 10 10 9 9 9 9 9
4 4 4 4 5 6 6 7 7 8 8 8 8 8 8 8 8 9 9 9 9 9 9 9 9 9 9 10 10 11 11 12 9 10 10 9 11 12 13 12 12 12 11
3 2 2 3 4 4 4 5 5 5 6 7 8 8 8 9 10 10 10 11 10 10 11 11 11 11 11 11 11 12 14 13 11 10 11 10 12 12 12 13 13 14 13
4 3 2 2 2 2 2 3 4 5 6 7 7 8 9 10 11 11 12 12 12 12 12 13 13 13 13 13 13 13 14 14 11 11 10 11 14 14 14 13 13 13 16
4 3 1 2 2 3 3 4 5 7 8 8 8 9 9 11 11 12 13 13 14 15 15 16 16 16 15 15 16 16 15 16 14 11 11 16 14 15 17 17 15 14 15
2 1 0 2 2 2 3 4 6 6 6 8 9 10 10 11 12 12 12 13 14 15 16 16 17 18 18 18 18 17 18 17 16 15 13 16 17 18 16 19 20 19 17
1 2 1 1 2 3 4 5 5 6 7 8 9 10 11 12 12 13 14 15 15 16 17 17 18 18 19 20 20 20 21 21 22 22 21 20 19 18 20 19 19 22 24
4 3 1 1 2 3 4 5 7 8 9 9 11 11 12 12 14 15 16 18 20 21 22 23 23 22 21 22 23 23 23 24 25 26 27 26 24 23 22 21 22 22 23
6 5 4 3 3 3 4 5 6 7 9 11 12 13 15 16 17 19 20 20 21 21 22 23 24 25 26 26 25 26 27 27 27 28 30 29 28 29 27 26 25 24 25
8 6 5 3 2 2 3 5 7 9 11 13 15 16 17 18 19 20 21 22 23 24 25 26 28 28 29 29 29 29 29 30 31 30 31 33 32 30 31 31 30 28 27
10 8 6 3 2 2 4 6 9 10 12 13 14 16 18 19 20 22 24 25 27 29 30 30 31 32 33 33 34 34 34 33 32 33 33 33 34 35 32 32 32 32 32
11 9 6 4 1 2 4 5 7 9 11 13 15 17 19 22 24 27 29 30 32 32 33 34 35 35 36 36 37 36 36 37 37 36 36 34 33 34 36 34 34 34 35
12 9 6 3 1 1 3 5 7 10 12 14 17 20 23 25 28 29 30 31 33 33 32 33 34 34 36 37 36 39 40 39 38 38 37 36 34 33 33 34 34 35 35
13 10 7 6 4 2 4 6 8 10 11 14 18 22 25 27 28 29 30 31 32 32 33 33 33 33 33 33 36 38 33 38 34 31 24 23 20 18 19 26 28 25 32
13 11 9 7 4 4 4 5 7 10 13 17 20 23 26 28 29 29 28 28 29 29 30 32 32 33 33 31 37 36 37 24 21 17 17 16 14 15 20 20 19 19 23
15 12 9 7 6 6 6 7 9 12 15 19 22 25 25 25 24 24 25 25 27 28 28 29 31 32 30 28 28 30 20 32 2 12 20 19 15 18 18 19 18 21 22
17 14 11 8 7 7 7 9 12 16 19 21 23 25 25 24 24 24 24 24 25 26 28 28 29 28 28 28 21 16 15 11 33 15 17 25 19 21 27 24 22 25 27
19 15 12 9 8 8 9 11 14 17 20 23 24 26 26 27 27 28 28 29 29 29 29 29 27 28 27 25 21 17 20 26 20 30 16 22 30 28 24 25 28 32 33
19 16 12 9 8 8 10 13 16 19 22 24 25 26 27 26 27 27 28 29 30 31 31 31 30 27 27 25 23 23 23 25 25 31 43 33 28 27 28 29 29 29 32
20 16 13 10 9 9 11 15 18 20 22 23 24 25 26 28 28 28 30 30 31 31 32 33 32 31 30 27 26 26 26 27 28 30 36 40 38 34 31 28 29 29 27
Wind_Direction
70 75 61 73 94 93 89 83 74 74 70 68 71 71 66 59 56 54 50 47 46 44 40 41 46 50 51 48 47 47 49 53 59 65 62 71 107 110 126 129 119 114 104
58 62 57 83 88 81 81 82 88 85 80 72 69 63 62 64 60 49 44 44 42 42 40 39 40 42 44 42 43 43 39 37 45 53 56 54 71 125 133 144 146 137 119
64 62 56 67 81 94 94 103 97 93 89 84 67 58 53 49 47 47 46 42 40 36 35 32 32 35 38 39 30 20 27 31 26 29 48 28 38 65 132 189 199 185 168
68 78 64 73 81 84 83 82 76 76 75 77 77 66 62 58 52 45 42 34 32 28 25 25 23 23 25 26 25 13 354 360 20 21 20 11 24 4 1 252 236 230 232
74 73 75 64 79 74 57 56 61 63 61 56 59 56 46 46 39 33 23 23 23 22 22 16 10 7 5 7 7 10 360 336 324 350 358 328 327 311 312 274 260 246 258
78 70 73 74 73 62 56 57 58 57 56 52 48 48 42 30 24 19 14 7 3 1 358 358 3 359 354 349 346 344 340 343 338 327 304 292 293 284 286 288 276 271 273
96 77 55 46 57 57 54 50 48 41 34 31 26 25 20 11 3 356 351 346 341 338 339 342 342 340 344 336 330 320 319 324 324 329 319 297 284 278 277 280 273 270 263
98 81 71 68 55 44 35 29 26 24 21 18 19 15 8 3 357 352 348 343 338 332 330 329 331 330 324 322 318 312 310 313 319 321 310 310 292 281 278 275 285 265 257
102 86 78 58 39 24 20 12 9 7 5 3 2 358 355 351 347 346 345 345 345 343 340 338 338 336 328 314 307 305 307 307 312 303 306 303 289 285 280 279 279 262 257
123 122 97 62 22 5 1 343 350 353 355 350 348 342 341 337 334 333 331 332 334 333 331 329 327 324 322 321 314 303 301 310 307 311 306 294 294 286 277 276 272 278 255
135 126 80 53 326 319 332 342 345 343 339 333 331 336 334 336 335 331 330 326 321 318 316 315 315 314 312 309 307 307 303 297 303 307 302 284 285 283 281 273 268 268 264
180 118 359 39 313 333 350 359 359 353 348 351 352 351 348 347 343 340 332 326 321 317 316 314 311 308 305 303 302 300 298 297 296 299 299 289 286 282 279 274 270 264 265
355 314 52 347 30 29 31 31 24 21 17 13 9 4 0 354 347 342 337 332 330 327 324 321 319 316 314 312 308 305 299 295 292 288 287 284 283 279 276 276 268 267 263
228 242 178 107 72 58 44 38 33 25 20 14 11 4 356 349 345 341 338 335 332 330 329 326 324 320 315 311 307 304 299 297 293 289 285 281 280 278 277 272 272 264 261
204 179 154 128 102 66 44 32 24 21 15 13 6 1 358 355 351 349 345 341 336 331 327 323 319 316 313 308 305 301 298 294 291 289 287 283 278 276 275 274 272 268 260
186 174 161 147 118 66 34 26 20 15 9 2 357 354 352 349 346 343 339 334 330 327 324 321 318 315 312 309 306 302 298 295 292 289 286 285 281 275 273 271 269 269 264
182 176 172 163 130 54 24 13 5 360 357 355 353 350 347 344 341 335 331 328 325 323 321 317 314 311 308 306 303 299 297 293 290 288 286 282 282 280 273 269 267 265 263
184 181 181 173 124 24 3 355 357 357 355 353 350 346 342 338 336 336 334 330 327 324 321 319 317 313 311 308 305 303 300 296 291 288 287 286 282 278 278 271 266 263 262
185 182 180 178 192 278 336 348 351 353 350 346 344 341 338 336 334 332 329 327 326 325 324 322 320 319 316 313 309 305 303 300 299 295 290 287 284 281 276 275 269 263 262
188 189 193 205 220 267 325 336 337 334 333 335 337 336 334 332 329 329 328 327 326 326 325 324 322 321 321 317 312 313 305 305 303 299 295 289 288 288 274 266 267 268 261
192 196 204 217 237 269 293 302 311 325 332 335 337 336 335 334 333 330 325 322 320 320 321 322 322 321 321 321 320 312 314 310 304 289 288 292 285 286 271 270 271 265 253
200 204 213 227 248 273 293 309 319 326 328 330 334 333 331 328 326 325 324 323 323 321 319 319 318 318 318 320 321 322 322 317 267 299 286 292 284 290 287 277 281 271 266
201 208 218 233 255 275 296 309 320 328 334 332 330 329 329 330 328 326 324 322 320 319 319 318 316 315 312 313 313 306 317 295 313 319 297 290 283 291 283 294 289 281 274
202 209 220 235 254 277 299 315 324 328 328 326 329 329 331 332 331 330 329 327 326 322 320 316 313 310 308 303 300 290 279 284 296 304 286 285 294 293 291 291 288 285 282
202 209 219 234 255 283 303 316 321 325 328 328 328 329 329 328 327 324 323 321 320 318 316 314 312 307 302 296 294 293 285 282 280 278 290 294 289 287 288 290 290 290 285
202 209 220 235 259 283 302 313 322 325 325 327 327 326 326 326 323 320 319 317 316 314 312 310 307 303 300 292 289 285 282 280 279 279 283 288 289 289 289 286 287 288 286